Regional Weather Roundup
Issued by NWS

Home | Current Version | Previous Version | Text Only | Print | Product List | Glossary Off
Versions: 1 2 3 4 5 6 7 8 9 10 11 12 13 14 15 16 17 18 19 20 21 22 23 24 25 26 27 28 29 30 31 32 33 34 35 36 37 38 39 40 41 42 43 44 45 46 47 48 49 50

000
ASUS43 KLSX 220707
RWRMO

WEATHER SUMMARY FOR MISSOURI
NATIONAL WEATHER SERVICE SPRINGFIELD MO
200 AM CDT TUE AUG 22 2017

NOTE: "FAIR" INDICATES FEW OR NO CLOUDS BELOW 12,000 FEET WITH NO
       SIGNIFICANT WEATHER AND/OR OBSTRUCTIONS TO VISIBILITY.
       CURRENT SKY AND/OR WEATHER CONDITIONS ARE NOT AVAILABLE FOR
       CHILLICOTHE AND FARMINGTON.

MOZ001>031-035>038-043-044-053-054-220800-
...NORTHERN AND WESTERN MISSOURI...

CITY           SKY/WX    TMP DP  RH WIND       PRES   REMARKS
KANSAS CTY INT TSTM      70  70 100 N8        29.98R VSB 1/2
KANSAS C DTWN  HVY RAIN  71  71 100 W6        29.95F FOG
LEE`S SUMMIT   LGT RAIN  69  69 100 MISG      29.98F FOG
ST JOSEPH      RAIN      65  65 100 NE7       30.01R FOG
CHILLICOTHE      N/A     69  69 100 VRB3      30.00F
KIRKSVILLE     CLOUDY    69  68  96 SW3       30.00S

$$
MOZ066>068-077>081-088>096-101>105-220800-
...SOUTHWEST MISSOURI...

CITY           SKY/WX    TMP DP  RH WIND       PRES   REMARKS
SPRINGFIELD    CLOUDY    78  74  87 S14G23    30.00F
JOPLIN         CLOUDY    81  75  82 S16       29.99F
BRANSON        CLEAR     75  72  88 S9        30.06F

$$
MOZ032>034-039>042-045>050-055>058-069>072-220800-
...CENTRAL MISSOURI...

CITY           SKY/WX    TMP DP  RH WIND       PRES   REMARKS
COLUMBIA       LGT RAIN  72  69  90 N10       29.99F
JEFFERSON CITY CLOUDY    79  75  87 NW15G22   29.97R
ROLLA          CLOUDY    77  73  87 SW9       30.00F
SEDALIA        HVY RAIN  71  71 100 W6        30.02R FOG
WHITEMAN AFB   TSTM      70  70 100 W5        29.99S FOG
WARRENSBURG    CLOUDY    70  68  94 S7        30.00S
OSAGE BEACH    CLOUDY    80  73  79 SW8       29.98F

$$
MOZ051-052-059>065-220800-
...EAST CENTRAL MISSOURI...

CITY           SKY/WX    TMP DP  RH WIND       PRES   REMARKS
ST LOUIS INTL  CLOUDY    83  73  72 SW18G25   29.95F
SPIRIT OF STL  CLOUDY    82  73  74 SW14G22   29.93F
ST CHARLES     CLOUDY    78  74  87 SW7       29.92F

$$
MOZ072>076-082>087-097>100-106>115-220800-
...SOUTH CENTRAL AND SOUTHEAST MISSOURI...

CITY           SKY/WX    TMP DP  RH WIND       PRES   REMARKS
CAPE GIRARDEAU CLEAR     78  74  87 S7        29.99F
FARMINGTON     CLEAR     77  74  90 SW6       30.01F
POPLAR BLUFF   CLEAR     76  75  97 S5        30.01F
WEST PLAINS    CLEAR     77  73  87 SW7       30.06F

$$



USA.gov is the U.S. government's official web portal to all federal, state and local government web resources and services.